Elizabeth City, NC

6:59 PM EDT on May 23, 2017 (GMT -0400)
Elizabeth City Cgas-Regional

Weather History for KECG - April, 2013

Change the Weather History Date:

Monday, April 8, 2013

  Actual Average Record
Temperature  
Mean Temperature 66 °F 57 °F  
Max Temperature 79 °F 68 °F 87 °F (1967)
Min Temperature 52 °F 46 °F 27 °F (2007)
Degree Days  
Heating Degree Days 0 9  
Month to date heating degree days 99 78  
Since 1 July heating degree days 2699 3015  
Cooling Degree Days 1 1  
Month to date cooling degree days 1 8  
Year to date cooling degree days 6 15  
Growing Degree Days 16 (Base 50)    
Moisture  
Dew Point 54 °F    
Average Humidity 66    
Maximum Humidity 93    
Minimum Humidity 39    
Precipitation  
Precipitation 0.00 in 0.11 in 1.56 in (1954)
Month to date precipitation 0.44 0.92  
Year to date precipitation 7.25 11.34  
Snow  
Snow 0.00 in - 0.00 in (2002)
Month to date snowfall 0.0  
Since 1 July snowfall T  
Snow Depth 0.00 in    
Sea Level Pressure  
Sea Level Pressure 30.13 in    
Wind  
Wind Speed 11 mph (SSW)    
Max Wind Speed 17 mph    
Max Gust Speed 24 mph    
Visibility 10 miles    
Events      
T = Trace of Precipitation, MM = Missing Value Source: NWS Daily Summary

Daily Weather History Graph

Daily Weather History Graph

Search for Another Location

Airport or City:

Trip Planner

Search our weather history database for the weather conditions in past years. The results will help you decide how hot, cold, wet, or windy it might be!

Date:

Astronomy

Apr. 08, 2013 Rise Set
Actual Time 6:40 AM EDT 7:32 PM EDT
Civil Twilight 6:14 AM EDT 7:59 PM EDT
Nautical Twilight 5:43 AM EDT 8:30 PM EDT
Astronomical Twilight 5:11 AM EDT 9:02 PM EDT
Moon 5:26 AM EDT (4/8) 6:06 PM EDT (4/8)
Length of Visible Light 13h 44m
Length of Day
12h 52m
Waning Crescent, 3% of the Moon is Illuminated
Apr 8
Waning Crescent
Apr 10
New
Apr 18
First Quarter
Apr 25
Full
May 2
Last Quarter

Hourly Weather History & Observations

Time (EDT) Temp. Dew Point Humidity Pressure Visibility Wind Dir Wind Speed Gust Speed Precip Events Conditions
12:54 AM 55.9 °F 50.0 °F 80% 30.16 in 10.0 mi South 6.9 mph - N/A   Clear
1:54 AM 55.0 °F 50.0 °F 83% 30.15 in 10.0 mi South 8.1 mph - N/A   Clear
2:54 AM 55.0 °F 50.0 °F 83% 30.14 in 10.0 mi South 5.8 mph - N/A   Clear
3:54 AM 53.1 °F 48.9 °F 86% 30.13 in 10.0 mi SSW 6.9 mph - N/A   Clear
4:54 AM 54.0 °F 51.1 °F 90% 30.14 in 10.0 mi SSW 9.2 mph - N/A   Clear
5:54 AM 54.0 °F 51.1 °F 90% 30.14 in 10.0 mi SSW 9.2 mph - N/A   Clear
6:54 AM 54.0 °F 51.1 °F 90% 30.16 in 10.0 mi SSW 8.1 mph - N/A   Clear
7:54 AM 57.0 °F 53.1 °F 87% 30.19 in 10.0 mi SSW 8.1 mph - N/A   Clear
8:54 AM 62.1 °F 55.0 °F 78% 30.18 in 10.0 mi SSW 11.5 mph - N/A   Clear
9:54 AM 64.9 °F 55.9 °F 73% 30.17 in 10.0 mi SSW 11.5 mph - N/A   Clear
10:54 AM 70.0 °F 57.0 °F 63% 30.17 in 10.0 mi SSW 12.7 mph - N/A   Clear
11:54 AM 73.0 °F 55.9 °F 55% 30.17 in 10.0 mi WSW 12.7 mph 18.4 mph N/A   Clear
12:54 PM 75.0 °F 55.9 °F 51% 30.15 in 10.0 mi SW 10.4 mph 20.7 mph N/A   Clear
1:54 PM 75.9 °F 55.0 °F 48% 30.13 in 10.0 mi SW 13.8 mph 19.6 mph N/A   Partly Cloudy
2:54 PM 77.0 °F 54.0 °F 45% 30.10 in 10.0 mi SSW 11.5 mph 19.6 mph N/A   Partly Cloudy
3:54 PM 78.1 °F 52.0 °F 40% 30.09 in 10.0 mi SSW 13.8 mph - N/A   Partly Cloudy
4:54 PM 78.1 °F 53.1 °F 42% 30.08 in 10.0 mi SSW 13.8 mph - N/A   Clear
5:54 PM 75.0 °F 53.1 °F 46% 30.07 in 10.0 mi SSE 12.7 mph - N/A   Clear
6:54 PM 72.0 °F 57.0 °F 59% 30.09 in 10.0 mi South 10.4 mph - N/A   Clear
7:54 PM 69.1 °F 57.0 °F 65% 30.10 in 10.0 mi South 11.5 mph - N/A   Clear
8:54 PM 66.0 °F 55.9 °F 70% 30.11 in 10.0 mi South 11.5 mph - N/A   Clear
9:54 PM 64.9 °F 57.0 °F 75% 30.13 in 10.0 mi SSW 12.7 mph - N/A   Clear
10:54 PM 64.0 °F 57.0 °F 78% 30.14 in 10.0 mi South 12.7 mph - N/A   Clear
11:54 PM 63.0 °F 57.0 °F 81% 30.14 in 10.0 mi SSW 11.5 mph - N/A   Clear